Temp
5 5 5 6 6 5 5 6 6 6 7 8 8 8 8 8 9 9 10 10 9 10 10 10 9 9 9 9 9 9 9 9 9 9 9 10 10 10
5 6 6 6 5 6 6 6 6 6 6 7 7 7 7 8 8 8 8 9 9 9 8 8 8 8 8 9 9 9 9 8 8 8 8 9 9 9
5 6 6 5 6 6 6 7 7 7 7 7 7 7 7 7 7 7 8 8 8 8 8 8 8 8 8 8 8 7 7 7 8 8 8 8 8 8
6 6 6 6 6 6 6 6 7 6 6 7 7 6 6 7 7 7 7 6 6 7 7 7 7 7 7 7 7 7 7 6 6 6 6 7 6 6
5 5 6 6 6 6 6 6 6 6 6 6 6 6 6 5 5 5 5 5 5 5 5 6 6 5 5 6 6 6 5 5 5 5 5 6 6 6
3 3 4 4 4 5 6 6 6 6 6 5 5 4 4 3 3 3 4 4 4 4 5 5 5 4 4 4 5 4 4 4 3 3 4 4 4 4
3 3 3 3 3 2 3 4 4 3 3 3 3 3 3 3 4 3 3 4 4 4 4 4 3 4 4 3 3 3 3 2 3 2 2 3 3 3
2 3 2 2 3 2 2 2 2 3 3 3 3 3 4 3 3 3 3 3 3 3 3 3 4 4 3 3 3 4 4 3 3 3 3 3 3 3
4 4 2 1 2 2 2 2 2 1 1 2 3 3 2 2 1 1 1 2 2 3 3 3 3 3 3 2 1 2 2 2 2 2 2 2 2 2
4 4 4 4 3 3 3 2 3 3 2 2 2 2 1 1 1 2 2 2 2 3 3 3 3 2 2 2 2 1 0 0 1 1 1 1 1 1
4 4 4 4 4 4 4 3 3 3 2 3 2 3 2 2 1 2 2 2 2 2 2 2 2 2 2 1 1 -0 -0 -1 -1 -1 -0 -0 0 0
4 4 4 4 3 3 3 3 3 2 2 2 2 2 2 2 1 1 1 1 1 1 2 1 0 0 0 -0 -1 -1 -1 -2 -2 -2 -2 -2 -1 -1
4 4 4 3 3 3 2 2 2 2 2 1 1 1 1 1 1 1 0 0 -0 -1 -1 -1 -1 -1 -2 -1 -1 -2 -2 -2 -3 -3 -3 -3 -3 -2
4 3 3 3 3 2 2 2 1 1 1 1 1 1 0 0 0 -0 -0 -1 -1 -1 -2 -2 -2 -2 -3 -3 -3 -3 -3 -4 -4 -3 -3 -3 -4 -4
3 3 2 2 2 2 2 1 1 1 0 0 0 0 -0 -0 -1 -1 -1 -1 -2 -2 -2 -3 -3 -3 -4 -4 -5 -4 -4 -4 -5 -4 -4 -4 -4 -4
3 2 2 2 2 2 1 1 1 0 0 0 -0 -1 -1 -1 -1 -2 -2 -2 -3 -3 -3 -3 -4 -4 -4 -5 -6 -5 -6 -6 -6 -6 -5 -5 -5 -5
1 1 1 1 1 1 1 0 0 -0 -0 -1 -1 -1 -1 -2 -2 -2 -3 -3 -3 -3 -4 -4 -5 -5 -5 -5 -5 -5 -6 -6 -7 -7 -6 -5 -5 -6
1 1 1 1 1 1 0 -0 -1 -1 -1 -1 -2 -2 -2 -3 -3 -3 -3 -4 -4 -4 -5 -5 -5 -5 -6 -6 -6 -6 -7 -7 -7 -7 -7 -6 -5 -7
-0 0 0 0 0 -0 -0 -1 -1 -1 -2 -2 -2 -2 -3 -3 -3 -4 -4 -4 -5 -5 -5 -5 -6 -6 -7 -6 -7 -7 -7 -8 -8 -7 -7 -7 -7 -7
1 0 0 0 -0 -1 -1 -1 -1 -2 -2 -2 -2 -3 -3 -3 -4 -4 -4 -5 -5 -6 -6 -6 -6 -7 -8 -8 -8 -8 -9 -8 -8 -8 -8 -7 -7 -7
0 -0 -1 -1 -1 -1 -1 -1 -2 -2 -2 -2 -2 -3 -3 -4 -4 -5 -5 -5 -7 -7 -7 -7 -7 -8 -9 -9 -9 -8 -8 -9 -9 -9 -9 -9 -9 -8
-1 -2 -2 -3 -3 -2 -2 -2 -2 -2 -3 -3 -3 -4 -4 -5 -5 -6 -6 -6 -7 -7 -8 -8 -8 -9 -9 -9 -9 -9 -8 -8 -8 -9 -10 -10 -10 -10
-4 -4 -3 -3 -3 -3 -3 -2 -2 -2 -3 -3 -4 -4 -5 -6 -6 -6 -7 -7 -7 -8 -8 -9 -9 -10 -10 -10 -10 -9 -9 -8 -8 -8 -9 -9 -9 -9
Height
1471 1469 1466 1465 1463 1462 1460 1460 1460 1457 1456 1457 1458 1458 1458 1457 1458 1458 1458 1457 1458 1459 1459 1459 1459 1460 1459 1458 1456 1455 1454 1453 1452 1451 1451 1450 1450 1449
1469 1467 1465 1463 1462 1460 1459 1459 1459 1457 1457 1457 1457 1457 1456 1455 1455 1455 1454 1454 1454 1454 1454 1455 1455 1454 1453 1452 1450 1449 1448 1446 1445 1444 1442 1441 1441 1440
1467 1466 1465 1463 1461 1460 1458 1458 1457 1456 1455 1455 1455 1455 1455 1455 1454 1453 1453 1452 1451 1451 1450 1450 1450 1448 1447 1445 1443 1443 1441 1440 1438 1436 1434 1434 1433 1432
1464 1463 1462 1461 1460 1459 1458 1457 1456 1454 1453 1453 1453 1453 1452 1451 1450 1449 1448 1447 1446 1445 1444 1444 1443 1442 1441 1439 1437 1437 1436 1434 1433 1431 1428 1427 1426 1424
1460 1459 1458 1458 1456 1456 1455 1454 1453 1452 1451 1449 1448 1448 1447 1446 1445 1445 1444 1443 1442 1441 1439 1438 1437 1436 1435 1434 1432 1431 1429 1428 1427 1426 1424 1423 1420 1419
1457 1456 1455 1454 1452 1451 1450 1449 1448 1447 1446 1445 1444 1443 1443 1442 1441 1441 1441 1439 1439 1438 1436 1435 1433 1432 1430 1428 1428 1426 1425 1423 1421 1420 1418 1416 1415 1413
1455 1453 1452 1451 1449 1447 1446 1445 1444 1443 1442 1441 1441 1440 1440 1439 1438 1437 1436 1436 1434 1433 1433 1431 1430 1428 1426 1424 1422 1421 1420 1418 1417 1415 1413 1411 1409 1407
1451 1451 1449 1448 1446 1445 1444 1443 1442 1440 1439 1438 1438 1437 1436 1435 1434 1433 1432 1431 1430 1427 1426 1426 1423 1422 1420 1419 1417 1416 1415 1414 1413 1411 1409 1406 1404 1401
1449 1447 1446 1445 1444 1442 1441 1440 1438 1437 1436 1435 1434 1433 1432 1431 1430 1429 1428 1426 1424 1422 1421 1420 1419 1418 1416 1415 1414 1412 1411 1409 1408 1407 1404 1402 1399 1397
1445 1443 1442 1441 1440 1439 1437 1436 1434 1433 1432 1431 1430 1430 1429 1428 1427 1425 1424 1423 1421 1419 1418 1417 1416 1415 1414 1412 1410 1409 1408 1406 1404 1402 1400 1398 1395 1393
1441 1439 1438 1437 1436 1435 1433 1432 1431 1430 1429 1428 1427 1426 1425 1424 1423 1422 1421 1420 1418 1417 1416 1415 1414 1412 1411 1409 1407 1406 1405 1403 1400 1398 1396 1394 1391 1389
1436 1435 1433 1433 1432 1430 1429 1428 1427 1427 1426 1425 1423 1422 1421 1420 1420 1419 1418 1416 1416 1415 1414 1414 1412 1412 1410 1407 1406 1404 1401 1400 1398 1395 1392 1390 1387 1384
1431 1430 1430 1428 1427 1426 1425 1424 1423 1423 1422 1422 1421 1420 1419 1418 1417 1416 1415 1414 1413 1412 1411 1411 1409 1409 1408 1406 1404 1402 1398 1395 1394 1392 1389 1386 1383 1380
1426 1425 1424 1423 1422 1422 1421 1420 1419 1418 1418 1417 1416 1416 1415 1414 1413 1412 1411 1410 1409 1409 1408 1407 1406 1405 1403 1401 1400 1398 1395 1392 1390 1387 1385 1382 1380 1377
1419 1418 1418 1417 1416 1416 1416 1415 1414 1413 1413 1412 1411 1410 1410 1409 1409 1408 1407 1406 1406 1405 1404 1403 1403 1401 1400 1398 1396 1393 1389 1389 1386 1384 1382 1379 1375 1372
1412 1411 1411 1410 1409 1410 1409 1408 1408 1408 1407 1407 1406 1405 1405 1404 1404 1403 1402 1401 1401 1401 1401 1399 1399 1397 1395 1394 1392 1389 1387 1385 1383 1381 1377 1375 1373 1369
1406 1404 1403 1402 1402 1402 1402 1402 1402 1402 1402 1402 1401 1401 1400 1400 1400 1399 1398 1398 1397 1396 1396 1395 1394 1393 1391 1389 1387 1385 1383 1382 1381 1377 1374 1371 1370 1365
1395 1394 1395 1395 1395 1395 1395 1396 1396 1395 1395 1396 1396 1395 1395 1395 1395 1394 1394 1394 1393 1392 1392 1392 1391 1390 1388 1385 1383 1381 1380 1378 1376 1375 1371 1368 1365 1362
1385 1385 1385 1386 1387 1387 1388 1388 1388 1389 1389 1389 1389 1389 1389 1389 1389 1390 1389 1389 1388 1387 1387 1386 1386 1385 1384 1381 1381 1378 1377 1375 1372 1371 1368 1365 1362 1359
1378 1377 1376 1377 1378 1379 1379 1379 1381 1381 1381 1382 1382 1383 1384 1384 1383 1383 1384 1384 1383 1383 1384 1384 1382 1382 1380 1378 1376 1376 1373 1371 1369 1366 1364 1362 1360 1357
1369 1367 1367 1366 1367 1368 1368 1369 1370 1371 1372 1373 1374 1375 1376 1378 1378 1379 1379 1379 1380 1380 1379 1378 1378 1378 1377 1376 1374 1372 1371 1369 1366 1362 1361 1359 1356 1353
1358 1357 1358 1358 1358 1358 1358 1358 1359 1360 1361 1363 1365 1367 1369 1370 1372 1373 1374 1374 1374 1374 1375 1375 1374 1374 1374 1373 1372 1370 1368 1367 1364 1361 1360 1358 1356 1352
1350 1350 1349 1348 1348 1349 1349 1349 1349 1350 1352 1353 1355 1357 1360 1362 1364 1367 1368 1369 1370 1370 1369 1371 1371 1371 1372 1371 1370 1369 1367 1365 1362 1360 1359 1356 1353 1350
Wind_Speed
11 11 13 12 11 11 10 12 15 19 24 19 16 8 8 11 11 12 11 11 10 14 18 20 23 24 25 26 26 27 27 28 29 29 29 30 31 32
10 9 13 9 10 10 9 11 11 15 20 19 10 9 7 9 8 8 9 13 15 16 18 19 22 24 26 25 26 27 28 29 30 31 31 32 32 32
8 11 12 10 9 8 8 10 12 13 12 11 10 9 9 10 11 13 15 17 18 20 22 24 25 26 26 27 26 25 26 29 30 32 33 32 30 31
11 12 12 12 12 10 8 8 10 10 10 12 12 14 14 14 15 16 17 18 20 22 24 24 25 26 25 24 24 23 22 21 20 22 25 26 26 26
10 11 12 13 14 15 14 13 14 16 17 17 18 18 18 18 17 16 16 18 19 20 21 20 17 16 17 18 18 18 17 17 17 20 21 22 25 27
10 11 11 11 12 13 13 14 15 16 16 16 16 14 12 13 11 13 13 13 11 13 14 12 12 14 16 17 17 16 15 17 19 19 22 23 22 23
9 10 12 13 13 14 13 11 11 11 11 10 11 11 14 15 15 14 14 13 14 14 13 12 15 17 15 15 16 17 16 18 21 22 25 27 26 26
10 10 12 11 13 12 10 8 8 9 10 10 9 10 12 12 13 14 14 12 13 14 13 16 16 15 15 14 16 17 16 16 18 20 20 21 22 22
14 13 12 12 12 11 11 10 10 10 9 10 10 10 12 12 14 13 14 15 16 16 15 14 12 10 12 13 14 18 17 16 15 18 19 20 20 21
16 16 16 15 13 12 12 12 12 11 10 10 11 12 12 13 13 13 12 12 14 15 14 14 13 11 12 15 16 14 12 15 18 18 19 20 20 20
17 17 16 14 13 13 13 12 12 12 12 12 11 12 12 10 11 12 12 12 12 14 15 13 13 16 15 13 9 9 16 18 18 19 20 20 19 19
18 18 17 15 14 14 14 13 14 13 13 12 12 12 11 11 11 11 12 12 11 10 10 10 13 12 7 11 8 17 15 16 19 20 20 19 18 18
20 18 17 17 16 15 15 15 14 14 14 14 14 13 13 12 12 12 12 12 11 9 13 12 11 12 11 14 15 15 14 19 19 19 17 16 18 19
19 18 19 18 18 17 16 16 16 16 16 15 15 14 14 13 13 13 13 13 12 11 12 12 13 13 14 16 17 14 17 17 19 18 16 18 17 17
20 19 19 20 20 19 19 19 19 17 17 17 15 14 14 14 14 14 14 13 12 12 12 13 14 14 15 16 20 19 21 17 15 16 19 17 19 18
22 22 21 22 22 21 21 20 20 19 19 18 17 16 15 14 14 14 14 14 13 13 12 14 15 16 17 16 18 19 17 15 18 19 20 17 14 16
22 25 25 25 25 24 23 21 21 21 21 19 18 17 16 15 15 15 15 14 14 14 13 15 15 16 17 17 16 15 16 16 17 19 19 19 11 13
26 30 30 29 29 27 25 24 24 23 22 21 20 19 18 16 16 15 15 14 14 14 14 15 16 14 14 15 15 15 14 14 15 14 17 19 14 9
30 32 33 33 31 30 27 27 27 25 23 23 23 21 19 18 18 16 15 15 15 15 15 15 16 14 14 11 11 11 14 16 16 13 13 15 17 11
32 33 33 33 32 31 30 29 28 27 27 27 26 23 21 20 19 17 16 15 15 16 16 16 15 13 12 13 11 6 12 17 16 16 15 13 12 11
30 31 31 32 33 31 30 30 28 27 27 28 27 26 24 23 21 18 17 16 16 16 16 13 12 11 12 9 10 9 5 11 15 16 14 13 14 17
31 31 29 28 26 25 25 26 27 28 29 29 29 27 25 23 21 19 18 16 17 16 16 15 11 9 9 8 9 10 9 8 10 10 8 8 12 12
28 29 30 29 26 25 25 26 26 25 27 28 29 29 27 25 23 21 19 17 17 17 16 13 9 8 9 8 9 9 9 8 7 6 9 11 11 11
Wind_Direction
323 333 331 321 304 305 304 278 284 293 295 302 321 327 293 280 279 276 276 268 261 263 267 272 284 288 291 291 289 290 289 290 290 289 287 285 283 281
308 324 337 331 323 301 289 285 282 281 281 295 315 314 302 296 286 276 266 267 270 275 278 282 285 288 289 289 289 290 291 293 293 292 290 288 285 282
287 289 316 325 324 316 298 284 284 289 298 301 296 293 287 285 286 288 287 284 282 281 281 283 286 288 292 294 292 292 292 292 292 292 293 290 288 284
284 286 291 294 298 303 295 280 275 280 284 294 295 287 289 287 285 283 283 284 284 284 284 285 288 289 289 291 293 295 294 294 298 300 295 294 296 296
300 296 289 281 278 279 278 275 275 278 280 281 283 286 290 291 289 288 289 290 291 291 291 291 290 291 293 297 300 299 301 301 303 307 301 298 296 295
302 302 303 299 296 290 283 277 272 271 271 272 276 286 292 292 297 297 293 297 299 298 294 284 293 298 300 301 301 303 306 310 312 311 312 307 305 305
297 296 298 299 298 296 297 290 289 288 286 284 281 281 280 282 284 288 291 285 283 289 289 287 297 298 292 298 301 299 297 299 299 304 304 305 304 303
298 292 294 300 300 298 296 293 289 289 280 277 274 278 279 281 278 279 279 281 294 297 299 302 303 304 299 297 300 305 305 303 306 306 310 313 313 310
300 304 293 290 289 293 287 274 272 275 277 265 267 267 269 269 277 285 288 296 298 301 307 314 312 312 306 302 300 300 308 308 309 310 310 312 314 315
294 295 299 295 290 293 287 283 285 294 289 282 275 278 277 279 283 294 297 299 301 304 313 313 311 312 308 303 301 300 308 311 309 309 311 311 311 313
291 291 295 291 289 288 290 289 286 289 290 291 287 287 283 285 287 294 299 304 304 303 305 305 304 311 313 304 298 300 315 313 313 315 313 310 311 310
285 287 291 291 283 284 285 284 283 286 287 288 289 289 289 288 287 292 296 297 299 302 302 299 307 316 312 304 299 311 311 306 311 311 311 312 313 312
282 283 283 283 282 280 279 280 282 281 282 284 285 286 287 291 294 293 294 296 296 287 289 296 299 307 302 300 303 306 304 309 309 308 309 311 312 313
280 281 280 280 278 277 276 274 275 275 275 277 279 283 287 288 289 293 294 293 291 291 287 287 294 300 303 306 306 304 305 307 304 303 306 312 313 312
279 278 277 277 274 272 272 270 270 269 269 272 273 275 278 283 286 286 284 284 283 284 284 288 294 298 300 301 301 310 310 311 301 303 313 316 313 311
275 276 274 271 271 270 267 268 267 266 265 266 268 268 271 275 277 278 279 279 279 281 279 283 291 295 296 298 296 301 298 298 300 310 313 316 313 308
271 268 268 269 270 270 269 266 264 263 264 265 265 266 267 270 273 274 274 275 273 276 278 283 287 293 296 296 293 288 287 289 296 308 313 315 322 308
263 264 266 267 269 270 269 268 264 263 262 261 261 260 263 266 268 270 272 272 272 274 277 280 285 289 292 291 288 288 287 291 299 309 313 317 324 322
265 267 267 268 269 269 270 268 266 265 263 257 256 256 257 259 262 268 267 267 269 269 270 276 285 293 299 299 292 284 288 296 304 312 316 318 321 331
268 271 274 275 273 271 270 269 269 266 260 257 256 254 256 257 258 260 262 263 263 265 269 275 277 282 291 304 309 299 289 299 309 316 321 317 318 322
269 269 271 272 274 274 268 264 264 262 257 255 253 250 250 252 255 255 255 257 258 258 265 268 267 267 277 290 304 321 305 297 307 313 322 323 332 330
275 275 274 274 275 273 271 267 264 257 253 249 248 245 245 247 248 250 250 251 253 257 265 271 265 255 265 280 304 317 328 320 304 301 307 321 312 309
274 274 275 275 271 269 267 266 264 259 253 251 247 243 240 239 242 242 244 248 251 253 254 253 247 252 260 275 293 305 316 326 321 295 274 292 299 297